Back to catalog

STARLINK-3959

AliveCommunicationsVLEO
NORAD 52564·PAYLOAD·🇺🇸 United States

Launched May 13, 2022 from Vandenberg Space Force Base

Loading…

Next Passes (next 24 hours)

TLE

FreshSource: CelesTrak SupGP

Epoch: Sep 14, 2026, 21:25 UTC

1 52564C 22051AH  26257.89284722 -.00028511  00000+0 -91678-3 0  2575
2 52564  53.1611   0.5865 0001406  83.2673  37.2497 15.31718206    12

Track STARLINK-3959 in real time with AllMySat

Download on the App Store